Location: Bakoi Town
(6.3667°N, 10.7167°W)
Time: 01:31:16
(UTC+00:00)

Daily predictions for brighter satellites

Satellite Brightness Start Highest point End
(mag) Time Altitude Azimuth Time Altitude Azimuth Time Altitude Azimuth
Atlas Centaur 2 4.0 03:49:49 33° N 03:49:49 33° N 03:54:55 10° NE
ARIANE 5 DEB (SYLDA) 4.5 04:24:22 56° SSE 04:24:22 56° SSE 04:28:52 10° ESE
Cosmos 1844 Rocket 3.0 04:27:13 61° ENE 04:27:13 61° ENE 04:32:10 10° NNE
S3M 4.0 04:29:03 77° SE 04:29:22 79° E 04:35:43 10° N
CZ-2C R/B 3.8 04:30:27 10° N 04:32:35 28° N 04:32:35 28° N
ARIANE 5 R/B 4.4 04:36:24 46° SSW 04:37:33 50° SSE 05:16:39 10° E
ARIANE 5 R/B 4.4 04:36:23 46° SSW 04:37:33 50° SSE 05:16:39 10° E
Ariane H10+ 3.6 04:32:34 46° WSW 04:37:51 81° S 04:44:07 10° E
Ariane H10-3 4.4 04:38:25 50° S 04:38:31 50° S 04:55:24 10° E
Hubble Space Telescope 2.9 04:43:41 19° N 04:43:41 19° N 04:45:33 10° NNE
Meteor 2-21 Rocket 4.3 04:37:47 10° N 04:43:51 88° W 04:46:01 43° S
Cosmos 1484 Rocket 4.3 04:40:49 10° NE 04:44:09 31° E 04:44:17 31° ESE
Meteor 2-16 Rocket 4.4 04:41:07 10° N 04:47:16 80° E 04:53:24 10° S
Nadezhda 2 Rocket 4.3 04:47:49 10° NNW 04:53:52 62° W 04:54:34 58° SW
Cosmos 2058 Rocket 3.1 04:54:48 76° SE 04:55:03 81° E 04:59:33 10° N
ALOS 3.0 04:53:02 10° NNE 04:57:33 51° ESE 05:00:37 20° S
ERS-2 4.3 05:02:32 16° NNW 05:02:32 16° NNW 05:03:20 10° NNW
Cosmos 2315 Rocket 4.3 04:55:40 10° S 05:01:51 68° E 05:08:05 10° N
CZ-4B R/B 3.8 05:01:29 10° NNE 05:05:06 68° ESE 05:05:40 56° SSE
GPS 2-12 Rocket1 3.3 05:08:29 51° SSW 05:09:21 61° SSE 05:14:07 10° ENE
ARIANE 5 DEB (SYLDA) 3.5 05:15:38 37° SSW 05:16:06 39° S 05:21:26 10° E
H-2A R/B 4.1 05:19:27 14° NW 05:19:27 14° NW 05:20:05 10° NW
Cosmos 1758 Rocket 3.5 05:16:30 10° NNW 05:20:43 55° W 05:23:24 21° SSW
Cosmos 1844 4.2 05:20:51 33° WSW 05:22:31 41° WNW 05:27:56 10° N
Ariane H10+ 4.0 05:20:52 30° WSW 05:23:52 49° S 05:31:45 10° ESE
Meteor 1-11 4.3 05:18:48 10° N 05:24:28 78° E 05:30:05 10° S
OAO 3 Copernicus 4.2 05:22:40 35° SW 05:24:48 89° NW 05:29:50 10° NE
CZ-4B R/B 1.8 05:21:53 10° SSE 05:25:18 66° ENE 05:28:38 10° N
CZ-3B R/B 3.3 05:11:37 10° WNW 05:27:01 77° NNE 05:31:35 10° ESE
H-2A R/B 3.8 05:28:02 10° NNE 05:31:34 37° ESE 05:35:09 10° S
CZ-4B R/B 3.0 05:31:01 10° N 05:35:27 74° WNW 05:39:44 10° SSW
SWIFT 3.3 05:33:53 22° SSW 05:35:57 35° SSE 05:39:49 10° E
ARIANE 44LP R/B 1.0 05:36:20 47° W 05:36:49 80° N 05:38:59 10° E
ATLAS 2A CENTAUR R/B 3.9 05:36:41 10° NNW 05:39:58 25° NE 05:48:29 10° E
SAR-Lupe-4 3.4 05:38:00 10° S 05:41:31 63° WSW 05:45:02 10° NNW
Meteor 2-10 Rocket 3.7 05:37:00 10° S 05:41:58 69° E 05:47:00 10° NNE
Cosmos 1825 Rocket 4.1 05:39:20 10° NNW 05:43:15 34° W 05:47:10 10° SSW
FENGYUN 3A 4.1 05:38:45 10° N 05:43:45 41° WNW 05:48:47 10° SW
Cosmos 2278 Rocket 2.8 05:42:51 10° S 05:48:25 60° ESE 05:53:58 10° NNE
Cosmos 1953 Rocket 3.7 05:45:08 10° NNW 05:49:27 50° W 05:53:45 10° S
Cosmos 1455 2.3 05:46:56 10° S 05:50:44 77° E 05:54:33 10° N
Okean O Rocket 4.2 05:47:55 10° NE 05:51:18 22° E 05:54:42 10° SSE
Meteor PRIRODA 4.2 05:55:22 10° N 05:58:49 37° WNW 06:02:17 10° SSW
Meteor 2-1 Rocket 4.4 06:00:44 10° SSW 06:06:14 52° W 06:11:51 10° N
Cosmos 1400 Rocket 2.9 06:09:45 10° SSW 06:13:42 55° W 06:17:34 10° N
Cosmos 1689 Rocket 2.4 06:11:11 10° S 06:13:59 41° W 06:16:45 10° NNW
Cosmos-2242 3.4 06:10:29 10° S 06:14:46 71° E 06:19:04 10° N
ASC 2 Rocket 3.7 06:13:27 10° W 06:17:27 42° SSW 06:22:37 10° SE
Chandra Rocket (1) 3.9 06:10:38 10° W 06:18:03 27° NW 06:21:20 10° NNE
MOS 1-B 4.4 06:17:23 10° N 06:23:07 68° WNW 06:28:51 10° SSW
